UPS381 KRFD-KSYR

Flight info

Callsign UPS381
Flight time 1h 25m
Altitude 37000
Route RFD OBK J547 PMM YXU EHMAN ROC SYR
Aircraft B764/H-SDE3FGHIM3RWXY/LB1

Departure

Time 2026-05-05 23:01
Airport Chicago Rockford International Airport (KRFD)

Arrival

Time 2026-05-06 00:26
Airport Syracuse Hancock International Airport (KSYR)
Time Latitude Longitude Altitude Speed Heading
2026-05-05 22:46 42.19977 -89.09930 735 ft 0 kts 245°
2026-05-05 22:54 42.19971 -89.09946 734 ft 3 kts 245°
2026-05-05 22:54 42.19957 -89.09979 734 ft 3 kts 225°
2026-05-05 22:54 42.19949 -89.09986 734 ft 0 kts 207°
2026-05-05 22:55 42.19939 -89.09991 734 ft 0 kts 196°
2026-05-05 22:55 42.19936 -89.09991 734 ft 1 kts 186°
2026-05-05 22:55 42.19914 -89.09985 735 ft 4 kts 155°
2026-05-05 22:55 42.19884 -89.09964 735 ft 5 kts 149°
2026-05-05 22:56 42.19861 -89.09929 736 ft 4 kts 107°
2026-05-05 22:56 42.19864 -89.09888 736 ft 4 kts 69°
2026-05-05 22:56 42.19877 -89.09840 736 ft 5 kts 68°
2026-05-05 22:56 42.19896 -89.09784 736 ft 7 kts 65°
2026-05-05 22:57 42.19921 -89.09712 736 ft 9 kts 65°
2026-05-05 22:57 42.19950 -89.09625 736 ft 11 kts 66°
2026-05-05 22:57 42.19987 -89.09519 736 ft 13 kts 65°
2026-05-05 22:57 42.20029 -89.09394 736 ft 16 kts 66°
2026-05-05 22:58 42.20079 -89.09246 736 ft 18 kts 65°
2026-05-05 22:58 42.20133 -89.09087 738 ft 18 kts 65°
2026-05-05 22:58 42.20186 -89.08933 740 ft 18 kts 65°
2026-05-05 22:58 42.20239 -89.08777 740 ft 16 kts 66°
2026-05-05 22:59 42.20199 -89.08674 740 ft 12 kts 158°
2026-05-05 22:59 42.20144 -89.08701 739 ft 7 kts 243°
2026-05-05 22:59 42.20140 -89.08714 739 ft 0 kts 245°
2026-05-05 22:59 42.20135 -89.08727 739 ft 8 kts 245°
2026-05-05 23:00 42.19748 -89.09869 737 ft 122 kts 245°
2026-05-05 23:00 42.19326 -89.11106 784 ft 165 kts 247°
2026-05-05 23:00 42.18796 -89.12581 1158 ft 181 kts 246°
2026-05-05 23:01 42.18253 -89.14098 1820 ft 185 kts 247°
2026-05-05 23:01 42.17661 -89.15762 2190 ft 210 kts 247°
2026-05-05 23:01 42.16919 -89.17569 2673 ft 231 kts 234°
2026-05-05 23:01 42.15705 -89.19003 3378 ft 246 kts 212°
2026-05-05 23:02 42.14017 -89.19666 4006 ft 268 kts 186°
2026-05-05 23:02 42.12212 -89.19209 5105 ft 270 kts 160°
2026-05-05 23:02 42.10695 -89.17737 5924 ft 282 kts 136°
2026-05-05 23:02 42.09649 -89.15408 6526 ft 302 kts 110°
2026-05-05 23:03 42.09344 -89.12616 7382 ft 307 kts 87°
2026-05-05 23:03 42.09640 -89.09811 8335 ft 306 kts 81°
2026-05-05 23:03 42.09981 -89.06953 9064 ft 313 kts 82°
2026-05-05 23:03 42.10323 -89.04064 9814 ft 318 kts 83°
2026-05-05 23:04 42.10647 -89.01128 10591 ft 322 kts 83°
2026-05-05 23:04 42.10978 -88.98088 11156 ft 335 kts 84°
2026-05-05 23:04 42.11310 -88.94930 11733 ft 347 kts 85°
2026-05-05 23:04 42.11613 -88.91725 12548 ft 350 kts 85°
2026-05-05 23:05 42.11990 -88.88394 12802 ft 375 kts 83°
2026-05-05 23:05 42.12423 -88.84809 13203 ft 395 kts 84°
2026-05-05 23:05 42.12859 -88.81075 13693 ft 412 kts 84°
2026-05-05 23:05 42.13296 -88.77248 14616 ft 417 kts 84°
2026-05-05 23:06 42.13732 -88.73360 15417 ft 425 kts 84°
2026-05-05 23:06 42.14173 -88.69401 16239 ft 431 kts 84°
2026-05-05 23:06 42.14616 -88.65402 17038 ft 438 kts 84°
2026-05-05 23:06 42.15062 -88.61356 17804 ft 444 kts 84°
2026-05-05 23:07 42.15521 -88.57172 18570 ft 451 kts 84°
2026-05-05 23:07 42.15979 -88.52982 19322 ft 458 kts 84°
2026-05-05 23:07 42.16437 -88.48777 20050 ft 464 kts 84°
2026-05-05 23:07 42.16906 -88.44454 20761 ft 470 kts 84°
2026-05-05 23:08 42.17381 -88.40065 21451 ft 477 kts 83°
2026-05-05 23:08 42.17857 -88.35641 22136 ft 483 kts 83°
2026-05-05 23:08 42.18344 -88.31113 22822 ft 489 kts 84°
2026-05-05 23:08 42.18825 -88.26602 23455 ft 495 kts 84°
2026-05-05 23:09 42.19315 -88.21999 24069 ft 501 kts 84°
2026-05-05 23:09 42.19816 -88.17284 24709 ft 507 kts 84°
2026-05-05 23:09 42.20314 -88.12569 25345 ft 512 kts 83°
2026-05-05 23:09 42.20815 -88.07813 25915 ft 518 kts 83°
2026-05-05 23:10 42.21317 -88.03020 26511 ft 523 kts 83°
2026-05-05 23:10 42.21822 -87.98174 27067 ft 529 kts 83°
2026-05-05 23:10 42.22380 -87.93248 27641 ft 534 kts 80°
2026-05-05 23:10 42.23100 -87.88288 28204 ft 540 kts 79°
2026-05-05 23:11 42.23805 -87.83350 28740 ft 545 kts 79°
2026-05-05 23:11 42.24524 -87.78286 29297 ft 550 kts 79°
2026-05-05 23:11 42.25239 -87.73216 29818 ft 555 kts 79°
2026-05-05 23:11 42.25962 -87.68066 30329 ft 560 kts 79°
2026-05-05 23:12 42.26682 -87.62922 30917 ft 562 kts 78°
2026-05-05 23:12 42.27399 -87.57773 31562 ft 563 kts 79°
2026-05-05 23:12 42.28122 -87.52561 32192 ft 562 kts 78°
2026-05-05 23:12 42.28833 -87.47417 32806 ft 562 kts 78°
2026-05-05 23:13 42.29543 -87.42268 33367 ft 561 kts 78°
2026-05-05 23:13 42.30253 -87.37053 33900 ft 561 kts 78°
2026-05-05 23:13 42.30945 -87.31924 34440 ft 560 kts 78°
2026-05-05 23:13 42.31646 -87.26717 34901 ft 559 kts 78°
2026-05-05 23:14 42.32334 -87.21564 35378 ft 558 kts 79°
2026-05-05 23:14 42.33017 -87.16437 35794 ft 556 kts 79°
2026-05-05 23:14 42.33701 -87.11304 36185 ft 556 kts 79°
2026-05-05 23:14 42.34376 -87.06199 36611 ft 553 kts 79°
2026-05-05 23:15 42.35044 -87.01137 36872 ft 544 kts 79°
2026-05-05 23:15 42.35707 -86.96101 36871 ft 544 kts 79°
2026-05-05 23:15 42.37020 -86.86054 36884 ft 544 kts 79°
2026-05-05 23:16 42.38324 -86.76000 36884 ft 543 kts 79°
2026-05-05 23:16 42.39620 -86.65953 36887 ft 543 kts 79°
2026-05-05 23:17 42.40908 -86.55886 36890 ft 544 kts 79°
2026-05-05 23:17 42.42179 -86.45878 36894 ft 543 kts 79°
2026-05-05 23:18 42.43445 -86.35840 36897 ft 544 kts 79°
2026-05-05 23:18 42.44709 -86.25748 36886 ft 543 kts 80°
2026-05-05 23:19 42.45959 -86.15698 36885 ft 544 kts 80°
2026-05-05 23:19 42.47270 -86.05600 36886 ft 544 kts 79°
2026-05-05 23:20 42.48643 -85.95631 36886 ft 543 kts 79°
2026-05-05 23:20 42.50017 -85.85551 36887 ft 544 kts 79°
2026-05-05 23:21 42.51376 -85.75520 36890 ft 543 kts 79°
2026-05-05 23:21 42.52729 -85.65459 36898 ft 543 kts 79°
2026-05-05 23:22 42.54070 -85.55409 36892 ft 544 kts 79°
2026-05-05 23:22 42.55405 -85.45343 36891 ft 543 kts 79°
2026-05-05 23:23 42.56724 -85.35329 36889 ft 543 kts 79°
2026-05-05 23:23 42.58049 -85.25193 36877 ft 543 kts 80°
2026-05-05 23:24 42.59355 -85.15133 36876 ft 542 kts 80°
2026-05-05 23:24 42.60638 -85.05193 36865 ft 531 kts 81°
2026-05-05 23:25 42.61893 -84.95393 36858 ft 523 kts 82°
2026-05-05 23:25 42.63124 -84.85683 36858 ft 522 kts 81°
2026-05-05 23:26 42.64355 -84.75925 36860 ft 524 kts 82°
2026-05-05 23:26 42.65572 -84.66208 36858 ft 524 kts 82°
2026-05-05 23:27 42.66788 -84.56425 36857 ft 524 kts 82°
2026-05-05 23:27 42.67982 -84.46751 36857 ft 523 kts 82°
2026-05-05 23:28 42.69179 -84.36977 36863 ft 525 kts 82°
2026-05-05 23:28 42.70367 -84.27226 36850 ft 523 kts 82°
2026-05-05 23:29 42.71545 -84.17481 36851 ft 524 kts 82°
2026-05-05 23:29 42.72710 -84.07756 36846 ft 524 kts 82°
2026-05-05 23:30 42.73867 -83.98030 36844 ft 523 kts 82°
2026-05-05 23:30 42.75017 -83.88292 36848 ft 524 kts 82°
2026-05-05 23:31 42.76167 -83.78481 36844 ft 524 kts 82°
2026-05-05 23:31 42.77303 -83.68717 36848 ft 524 kts 82°
2026-05-05 23:32 42.78429 -83.58970 36843 ft 523 kts 82°
2026-05-05 23:32 42.79545 -83.49220 36850 ft 524 kts 82°
2026-05-05 23:33 42.80659 -83.39423 36849 ft 524 kts 82°
2026-05-05 23:33 42.81767 -83.29597 36841 ft 524 kts 83°
2026-05-05 23:34 42.82864 -83.19788 36832 ft 523 kts 83°
2026-05-05 23:34 42.83946 -83.10040 36819 ft 524 kts 83°
2026-05-05 23:35 42.85028 -83.00222 36811 ft 523 kts 83°
2026-05-05 23:35 42.86091 -82.90518 36803 ft 518 kts 84°
2026-05-05 23:36 42.87136 -82.80860 36805 ft 513 kts 85°
2026-05-05 23:36 42.88160 -82.71317 36805 ft 510 kts 85°
2026-05-05 23:37 42.89184 -82.61692 36823 ft 514 kts 85°
2026-05-05 23:37 42.90198 -82.52094 36845 ft 513 kts 85°
2026-05-05 23:38 42.91208 -82.42456 36830 ft 513 kts 85°
2026-05-05 23:38 42.92209 -82.32832 36821 ft 515 kts 87°
2026-05-05 23:39 42.93207 -82.23144 36817 ft 516 kts 86°
2026-05-05 23:39 42.94187 -82.13576 36820 ft 512 kts 86°
2026-05-05 23:40 42.95166 -82.03908 36815 ft 515 kts 87°
2026-05-05 23:40 42.96133 -81.94270 36811 ft 515 kts 86°
2026-05-05 23:41 42.97094 -81.84622 36823 ft 516 kts 86°
2026-05-05 23:41 42.98053 -81.74927 36830 ft 515 kts 87°
2026-05-05 23:42 42.99001 -81.65227 36841 ft 515 kts 86°
2026-05-05 23:42 42.99942 -81.55524 36853 ft 519 kts 86°
2026-05-05 23:43 43.00877 -81.45808 36848 ft 515 kts 87°
2026-05-05 23:43 43.01802 -81.36084 36850 ft 517 kts 87°
2026-05-05 23:44 43.02719 -81.26382 36847 ft 515 kts 88°
2026-05-05 23:44 43.03622 -81.16650 36859 ft 517 kts 89°
2026-05-05 23:45 43.04172 -81.06931 36846 ft 511 kts 92°
2026-05-05 23:45 43.04647 -80.97282 36857 ft 511 kts 93°
2026-05-05 23:46 43.05112 -80.87585 36850 ft 512 kts 94°
2026-05-05 23:46 43.05564 -80.77896 36852 ft 510 kts 94°
2026-05-05 23:47 43.06005 -80.68245 36851 ft 511 kts 94°
2026-05-05 23:47 43.06441 -80.58554 36851 ft 512 kts 94°
2026-05-05 23:48 43.06871 -80.48864 36850 ft 509 kts 94°
2026-05-05 23:48 43.07290 -80.39159 36852 ft 509 kts 94°
2026-05-05 23:49 43.07699 -80.29566 36841 ft 507 kts 94°
2026-05-05 23:49 43.08098 -80.19930 36859 ft 510 kts 95°
2026-05-05 23:50 43.08494 -80.10246 36843 ft 508 kts 95°
2026-05-05 23:50 43.08878 -80.00620 36853 ft 510 kts 95°
2026-05-05 23:51 43.09256 -79.90961 36856 ft 510 kts 95°
2026-05-05 23:51 43.09625 -79.81327 36858 ft 509 kts 94°
2026-05-05 23:52 43.09985 -79.71658 36860 ft 509 kts 94°
2026-05-05 23:52 43.10340 -79.61977 36840 ft 510 kts 95°
2026-05-05 23:53 43.10683 -79.52364 36849 ft 509 kts 95°
2026-05-05 23:53 43.11020 -79.42701 36848 ft 510 kts 94°
2026-05-05 23:54 43.11350 -79.33054 36844 ft 507 kts 95°
2026-05-05 23:54 43.11666 -79.23474 36844 ft 505 kts 96°
2026-05-05 23:55 43.11977 -79.13850 36852 ft 509 kts 96°
2026-05-05 23:55 43.12287 -79.04323 36767 ft 484 kts 97°
2026-05-05 23:56 43.12437 -78.99869 36145 ft 465 kts 98°
2026-05-05 23:56 43.12565 -78.95480 34777 ft 463 kts 98°
2026-05-05 23:56 43.12688 -78.91163 33262 ft 464 kts 98°
2026-05-05 23:56 43.12810 -78.86736 31438 ft 470 kts 97°
2026-05-05 23:57 43.12932 -78.82301 29971 ft 485 kts 97°
2026-05-05 23:57 43.13065 -78.77630 29721 ft 493 kts 96°
2026-05-05 23:57 43.13203 -78.72955 29161 ft 490 kts 96°
2026-05-05 23:57 43.13337 -78.68353 28633 ft 484 kts 96°
2026-05-05 23:58 43.13466 -78.63785 28122 ft 479 kts 96°
2026-05-05 23:58 43.13592 -78.59267 27626 ft 474 kts 96°
2026-05-05 23:58 43.13712 -78.54793 27089 ft 470 kts 96°
2026-05-05 23:58 43.13832 -78.50324 26732 ft 460 kts 96°
2026-05-05 23:59 43.13947 -78.46035 26734 ft 456 kts 96°
2026-05-05 23:59 43.14053 -78.41626 26813 ft 466 kts 96°
2026-05-05 23:59 43.14164 -78.37236 27009 ft 469 kts 96°
2026-05-05 23:59 43.14182 -78.32748 26957 ft 466 kts 101°
2026-05-06 00:00 43.14010 -78.28371 26962 ft 460 kts 102°
2026-05-06 00:00 43.13851 -78.23998 26963 ft 459 kts 102°
2026-05-06 00:00 43.13695 -78.19635 26965 ft 461 kts 102°
2026-05-06 00:00 43.13540 -78.15221 26964 ft 462 kts 101°
2026-05-06 00:01 43.13385 -78.10817 26962 ft 463 kts 101°
2026-05-06 00:01 43.13229 -78.06418 26650 ft 469 kts 101°
2026-05-06 00:01 43.13072 -78.01959 25978 ft 468 kts 101°
2026-05-06 00:01 43.12917 -77.97547 25332 ft 466 kts 101°
2026-05-06 00:02 43.12724 -77.93150 24689 ft 461 kts 104°
2026-05-06 00:02 43.12143 -77.88924 24055 ft 447 kts 114°
2026-05-06 00:02 43.11275 -77.84901 23464 ft 445 kts 111°
2026-05-06 00:02 43.10802 -77.80707 22987 ft 450 kts 101°
2026-05-06 00:03 43.10808 -77.76979 22568 ft 454 kts 92°
2026-05-06 00:03 43.10949 -77.75198 22367 ft 455 kts 88°
2026-05-06 00:03 43.11495 -77.70947 21887 ft 449 kts 89°
2026-05-06 00:03 43.11658 -77.66801 21419 ft 435 kts 99°
2026-05-06 00:04 43.11460 -77.62719 20972 ft 428 kts 100°
2026-05-06 00:04 43.11350 -77.58631 20518 ft 426 kts 98°
2026-05-06 00:04 43.11311 -77.54591 20075 ft 425 kts 97°
2026-05-06 00:04 43.11311 -77.50575 19634 ft 423 kts 96°
2026-05-06 00:05 43.11356 -77.42619 18761 ft 417 kts 95°
2026-05-06 00:05 43.11386 -77.38642 18325 ft 415 kts 95°
2026-05-06 00:05 43.11417 -77.34735 17897 ft 412 kts 96°
2026-05-06 00:06 43.11447 -77.30815 17456 ft 408 kts 96°
2026-05-06 00:06 43.11476 -77.26976 17027 ft 406 kts 96°
2026-05-06 00:06 43.11504 -77.23131 16603 ft 403 kts 96°
2026-05-06 00:06 43.11531 -77.19284 16190 ft 401 kts 95°
2026-05-06 00:07 43.11556 -77.15501 15783 ft 399 kts 95°
2026-05-06 00:07 43.11581 -77.11712 15375 ft 396 kts 95°
2026-05-06 00:07 43.11603 -77.07954 14970 ft 393 kts 95°
2026-05-06 00:07 43.11624 -77.04241 14570 ft 391 kts 95°
2026-05-06 00:08 43.11645 -77.00500 14167 ft 388 kts 95°
2026-05-06 00:08 43.11663 -76.96847 13772 ft 384 kts 95°
2026-05-06 00:08 43.11681 -76.93207 13378 ft 380 kts 95°
2026-05-06 00:08 43.11697 -76.89611 12989 ft 376 kts 94°
2026-05-06 00:09 43.11711 -76.86069 12605 ft 373 kts 94°
2026-05-06 00:09 43.11725 -76.82516 12219 ft 369 kts 94°
2026-05-06 00:09 43.11737 -76.79013 11838 ft 366 kts 94°
2026-05-06 00:09 43.11747 -76.75575 11465 ft 365 kts 94°
2026-05-06 00:10 43.11757 -76.72099 11086 ft 365 kts 93°
2026-05-06 00:10 43.11766 -76.68650 10707 ft 364 kts 93°
2026-05-06 00:10 43.11774 -76.65161 10322 ft 362 kts 93°
2026-05-06 00:10 43.11781 -76.61748 9944 ft 359 kts 92°
2026-05-06 00:11 43.11787 -76.58388 9581 ft 355 kts 92°
2026-05-06 00:11 43.11793 -76.55040 9204 ft 343 kts 92°
2026-05-06 00:11 43.11800 -76.51871 8817 ft 318 kts 92°
2026-05-06 00:11 43.11802 -76.48908 8518 ft 310 kts 92°
2026-05-06 00:12 43.11802 -76.46003 8277 ft 306 kts 92°
2026-05-06 00:12 43.11802 -76.43117 8026 ft 302 kts 92°
2026-05-06 00:12 43.11802 -76.40253 7779 ft 302 kts 92°
2026-05-06 00:12 43.11801 -76.37367 7528 ft 302 kts 91°
2026-05-06 00:13 43.11800 -76.34537 7286 ft 300 kts 92°
2026-05-06 00:13 43.11798 -76.31680 7030 ft 300 kts 91°
2026-05-06 00:13 43.11796 -76.28826 6780 ft 297 kts 91°
2026-05-06 00:13 43.11792 -76.26012 6527 ft 296 kts 91°
2026-05-06 00:14 43.11789 -76.23209 6273 ft 296 kts 91°
2026-05-06 00:14 43.11784 -76.20386 6020 ft 294 kts 91°
2026-05-06 00:14 43.11779 -76.17594 5771 ft 293 kts 90°
2026-05-06 00:14 43.11774 -76.14833 5520 ft 291 kts 90°
2026-05-06 00:15 43.11766 -76.12056 5270 ft 291 kts 90°
2026-05-06 00:15 43.11760 -76.09293 5021 ft 288 kts 90°
2026-05-06 00:15 43.11752 -76.06558 4777 ft 289 kts 90°
2026-05-06 00:15 43.11743 -76.03809 4518 ft 287 kts 89°
2026-05-06 00:16 43.11734 -76.01086 4270 ft 286 kts 89°
2026-05-06 00:16 43.11725 -75.98348 3996 ft 284 kts 89°
2026-05-06 00:16 43.11715 -75.95644 3722 ft 283 kts 89°
2026-05-06 00:16 43.11704 -75.92974 3450 ft 282 kts 89°
2026-05-06 00:17 43.11693 -75.90314 3178 ft 280 kts 89°
2026-05-06 00:17 43.11681 -75.87653 2905 ft 279 kts 89°
2026-05-06 00:17 43.11694 -75.85000 2736 ft 272 kts 87°
2026-05-06 00:17 43.11707 -75.82468 2734 ft 260 kts 89°
2026-05-06 00:18 43.11705 -75.80051 2729 ft 248 kts 88°
2026-05-06 00:18 43.11705 -75.77747 2729 ft 237 kts 88°
2026-05-06 00:18 43.11704 -75.75539 2731 ft 225 kts 88°
2026-05-06 00:18 43.11757 -75.73493 2757 ft 210 kts 75°
2026-05-06 00:19 43.12425 -75.71830 2706 ft 192 kts 34°
2026-05-06 00:19 43.13596 -75.71239 2823 ft 180 kts 353°
2026-05-06 00:19 43.14718 -75.71832 2751 ft 173 kts 313°
2026-05-06 00:19 43.15194 -75.73271 2750 ft 170 kts 270°
2026-05-06 00:20 43.14779 -75.74842 2802 ft 189 kts 238°
2026-05-06 00:20 43.13959 -75.76286 2744 ft 190 kts 234°
2026-05-06 00:20 43.13127 -75.77664 2742 ft 188 kts 234°
2026-05-06 00:20 43.12288 -75.79078 2746 ft 189 kts 237°
2026-05-06 00:21 43.11873 -75.80713 2728 ft 183 kts 267°
2026-05-06 00:21 43.11807 -75.82482 2586 ft 187 kts 269°
2026-05-06 00:21 43.11738 -75.84229 2360 ft 183 kts 269°
2026-05-06 00:21 43.11674 -75.85987 2169 ft 182 kts 269°
2026-05-06 00:22 43.11616 -75.87688 2152 ft 173 kts 269°
2026-05-06 00:22 43.11563 -75.89228 2102 ft 154 kts 270°
2026-05-06 00:22 43.11518 -75.90659 2149 ft 152 kts 270°
2026-05-06 00:22 43.11474 -75.92125 2149 ft 153 kts 270°
2026-05-06 00:23 43.11430 -75.93580 2138 ft 149 kts 270°
2026-05-06 00:23 43.11388 -75.94924 2117 ft 139 kts 270°
2026-05-06 00:23 43.11346 -75.96267 2158 ft 141 kts 270°
2026-05-06 00:23 43.11305 -75.97620 2071 ft 145 kts 270°
2026-05-06 00:24 43.11269 -75.99010 1888 ft 146 kts 270°
2026-05-06 00:24 43.11215 -76.00410 1720 ft 147 kts 269°
2026-05-06 00:24 43.11159 -76.01796 1472 ft 146 kts 270°
2026-05-06 00:24 43.11126 -76.03157 1297 ft 142 kts 270°
2026-05-06 00:25 43.11072 -76.04519 1113 ft 141 kts 270°
2026-05-06 00:25 43.11041 -76.05854 917 ft 140 kts 271°
2026-05-06 00:25 43.10980 -76.07183 732 ft 140 kts 269°
2026-05-06 00:25 43.10945 -76.08516 543 ft 140 kts 271°
2026-05-06 00:26 43.10910 -76.09831 412 ft 136 kts 270°
2026-05-06 00:26 43.10876 -76.10982 421 ft 99 kts 268°
2026-05-06 00:26 43.10856 -76.11565 425 ft 37 kts 266°
2026-05-06 00:26 43.10849 -76.11803 427 ft 5 kts 268°
2026-05-06 00:27 43.10843 -76.11817 428 ft 2 kts 232°
2026-05-06 00:27 43.10822 -76.11820 428 ft 7 kts 171°
2026-05-06 00:27 43.10745 -76.11806 428 ft 9 kts 164°
2026-05-06 00:27 43.10725 -76.11749 428 ft 6 kts 92°
2026-05-06 00:28 43.10727 -76.11682 427 ft 8 kts 88°
2026-05-06 00:28 43.10730 -76.11583 425 ft 12 kts 88°
2026-05-06 00:28 43.10733 -76.11461 424 ft 12 kts 86°
2026-05-06 00:28 43.10733 -76.11339 422 ft 12 kts 109°
2026-05-06 00:29 43.10661 -76.11285 422 ft 12 kts 170°
2026-05-06 00:29 43.10630 -76.11228 422 ft 8 kts 92°
2026-05-06 00:29 43.10635 -76.11140 421 ft 11 kts 87°
2026-05-06 00:29 43.10636 -76.11015 419 ft 15 kts 87°
2026-05-06 00:30 43.10641 -76.10847 418 ft 19 kts 87°
2026-05-06 00:30 43.10649 -76.10652 415 ft 18 kts 87°
2026-05-06 00:30 43.10614 -76.10542 413 ft 12 kts 165°
2026-05-06 00:30 43.10535 -76.10537 412 ft 10 kts 179°
2026-05-06 00:31 43.10466 -76.10535 412 ft 9 kts 179°
2026-05-06 00:31 43.10407 -76.10532 412 ft 7 kts 179°
2026-05-06 00:31 43.10383 -76.10550 413 ft 1 kts 254°
2026-05-06 00:31 43.10385 -76.10561 413 ft 2 kts 295°
2026-05-06 00:32 43.10399 -76.10570 413 ft 0 kts 358°
2026-05-06 00:32 43.10400 -76.10570 413 ft 0 kts 358°